Weather History for KJNX - September, 2012

Change the Weather History Date:

Monday, September 10, 2012

  Actual Average (KRDU) Record (KRDU)
Temperature  
Mean Temperature 65 °F 74 °F  
Max Temperature 77 °F 84 °F 101 °F (2007)
Min Temperature 53 °F 64 °F 44 °F (1956)
Degree Days  
Heating Degree Days 0 0  
Month to date heating degree days 0  
Since 1 July heating degree days 1  
Cooling Degree Days 0 9  
Month to date cooling degree days 102  
Year to date cooling degree days 1543  
Growing Degree Days 15 (Base 50)    
Moisture  
Dew Point 54 °F    
Average Humidity 76    
Maximum Humidity 100    
Minimum Humidity 36    
Precipitation  
Precipitation 0.00 in 0.17 in 2.75 in (1976)
Month to date precipitation 1.59  
Year to date precipitation 31.13  
Sea Level Pressure  
Sea Level Pressure 30.07 in    
Wind  
Wind Speed 2 mph (North)    
Max Wind Speed 10 mph    
Max Gust Speed 18 mph    
Visibility 10 miles    
Events      
T = Trace of Precipitation, MM = Missing Value Source: NWS Daily Summary

Daily Weather History Graph

Daily Weather History Graph

Search for Another Location

Airport or City:

Trip Planner

Search our weather history database for the weather conditions in past years. The results will help you decide how hot, cold, wet, or windy it might be!

Date:

Astronomy

Sep. 10, 2012 Rise Set
Actual Time 6:52 AM EDT 7:27 PM EDT
Civil Twilight 6:27 AM EDT 7:52 PM EDT
Nautical Twilight 5:56 AM EDT 8:23 PM EDT
Astronomical Twilight 5:26 AM EDT 8:53 PM EDT
Moon 1:21 AM EDT (9/10) 3:47 PM EDT (9/10)
Length of Visible Light 13h 25m
Length of Day
12h 34m
Waning Crescent, 30% of the Moon is Illuminated
Sep 10
Waning Crescent
Sep 15
New
Sep 22
First Quarter
Sep 29
Full
Oct 8
Last Quarter

Hourly Weather History & Observations

Time (EDT) Temp. Dew Point Humidity Pressure Visibility Wind Dir Wind Speed Gust Speed Precip Events Conditions
12:15 AM 57.2 °F 57.2 °F 100% 29.98 in 10.0 mi Calm Calm - N/A   Clear
12:35 AM 57.2 °F 57.2 °F 100% 29.98 in 10.0 mi Calm Calm - N/A   Clear
12:55 AM 57.2 °F 57.2 °F 100% 29.97 in 10.0 mi Calm Calm - N/A   Clear
1:15 AM 55.4 °F 55.4 °F 100% 29.97 in 10.0 mi Calm Calm - N/A   Clear
1:35 AM 55.4 °F 55.4 °F 100% 29.97 in 10.0 mi Calm Calm - N/A   Clear
1:55 AM 55.4 °F 55.4 °F 100% 29.98 in 10.0 mi Calm Calm - N/A   Clear
2:15 AM 55.4 °F 55.4 °F 100% 29.98 in 10.0 mi Calm Calm - N/A   Clear
2:35 AM 55.4 °F 55.4 °F 100% 29.98 in 10.0 mi Calm Calm - N/A   Clear
2:55 AM 55.4 °F 55.4 °F 100% 29.98 in 10.0 mi Calm Calm - N/A   Clear
3:15 AM 55.4 °F 55.4 °F 100% 29.98 in 10.0 mi Calm Calm - N/A   Clear
3:35 AM 55.4 °F 55.4 °F 100% 29.98 in 10.0 mi Calm Calm - N/A   Clear
3:55 AM 55.4 °F 55.4 °F 100% 29.99 in 10.0 mi Calm Calm - N/A   Clear
4:15 AM 55.4 °F 55.4 °F 100% 29.99 in 10.0 mi Calm Calm - N/A   Clear
4:35 AM 53.6 °F 53.6 °F 100% 29.99 in 10.0 mi Calm Calm - N/A   Clear
4:55 AM 53.6 °F 53.6 °F 100% 30.00 in 10.0 mi Calm Calm - N/A   Clear
5:15 AM 53.6 °F 53.6 °F 100% 30.00 in 10.0 mi Calm Calm - N/A   Clear
5:35 AM 53.6 °F 53.6 °F 100% 30.01 in 10.0 mi Calm Calm - N/A   Clear
5:55 AM 53.6 °F 53.6 °F 100% 30.02 in 10.0 mi Calm Calm - N/A   Clear
6:15 AM 53.6 °F 53.6 °F 100% 30.03 in 10.0 mi Calm Calm - N/A   Clear
6:35 AM 53.6 °F 53.6 °F 100% 30.04 in 10.0 mi Calm Calm - N/A   Clear
6:55 AM 53.6 °F 53.6 °F 100% 30.05 in 10.0 mi Calm Calm - N/A   Clear
7:15 AM 53.6 °F 53.6 °F 100% 30.06 in 10.0 mi Calm Calm - N/A   Clear
7:35 AM 53.6 °F 53.6 °F 100% 30.07 in 10.0 mi Calm Calm - N/A   Clear
7:55 AM 55.4 °F 55.4 °F 100% 30.07 in 10.0 mi Calm Calm - N/A   Clear
8:15 AM 59.0 °F 59.0 °F 100% 30.08 in 10.0 mi Calm Calm - N/A   Clear
8:35 AM 62.6 °F 59.0 °F 88% 30.08 in 10.0 mi Calm Calm - N/A   Clear
8:55 AM 64.4 °F 55.4 °F 73% 30.08 in 10.0 mi North 6.9 mph - N/A   Clear
9:15 AM 68.0 °F 55.4 °F 64% 30.08 in 10.0 mi North 8.1 mph - N/A   Clear
9:35 AM 68.0 °F 53.6 °F 60% 30.09 in 10.0 mi NNE 10.4 mph 16.1 mph N/A   Clear
9:55 AM 69.8 °F 55.4 °F 60% 30.11 in 10.0 mi NNE 10.4 mph 16.1 mph N/A   Clear
10:15 AM 71.6 °F 53.6 °F 53% 30.11 in 10.0 mi North 10.4 mph - N/A   Clear
10:35 AM 71.6 °F 53.6 °F 53% 30.11 in 10.0 mi NNE 9.2 mph - N/A   Clear
10:55 AM 71.6 °F 51.8 °F 50% 30.12 in 10.0 mi North 10.4 mph - N/A   Clear
11:15 AM 73.4 °F 53.6 °F 50% 30.11 in 10.0 mi North 8.1 mph - N/A   Clear
11:35 AM 73.4 °F 51.8 °F 47% 30.11 in 10.0 mi NNE 9.2 mph - N/A   Clear
11:55 AM 73.4 °F 50.0 °F 44% 30.11 in 10.0 mi North 9.2 mph - N/A   Clear
12:15 PM 73.4 °F 51.8 °F 47% 30.11 in 10.0 mi North 9.2 mph 16.1 mph N/A   Clear
12:35 PM 75.2 °F 53.6 °F 47% 30.10 in 10.0 mi North 9.2 mph 18.4 mph N/A   Clear
12:55 PM 75.2 °F 51.8 °F 44% 30.10 in 10.0 mi North 4.6 mph 9.2 mph N/A   Clear
1:15 PM 75.2 °F 53.6 °F 47% 30.10 in 10.0 mi North 6.9 mph 17.3 mph N/A   Scattered Clouds
1:35 PM 75.2 °F 51.8 °F 44% 30.10 in 10.0 mi North 9.2 mph - N/A   Mostly Cloudy
1:55 PM 77.0 °F 51.8 °F 41% 30.10 in 10.0 mi NNW 6.9 mph - N/A   Scattered Clouds
2:15 PM 77.0 °F 51.8 °F 41% 30.09 in 10.0 mi NW 5.8 mph - N/A   Scattered Clouds
2:35 PM 77.0 °F 51.8 °F 41% 30.08 in 10.0 mi North 10.4 mph 17.3 mph N/A   Mostly Cloudy
2:55 PM 77.0 °F 53.6 °F 44% 30.07 in 10.0 mi North 3.5 mph - N/A   Scattered Clouds
3:15 PM 77.0 °F 51.8 °F 41% 30.07 in 10.0 mi North 8.1 mph - N/A   Mostly Cloudy
3:35 PM 77.0 °F 51.8 °F 41% 30.07 in 10.0 mi NNE 9.2 mph - N/A   Mostly Cloudy
3:55 PM 77.0 °F 50.0 °F 39% 30.06 in 10.0 mi North 10.4 mph 17.3 mph N/A   Mostly Cloudy
4:15 PM 77.0 °F 51.8 °F 41% 30.06 in 10.0 mi North 6.9 mph - N/A   Scattered Clouds
4:35 PM 77.0 °F 48.2 °F 36% 30.07 in 10.0 mi NNE 10.4 mph - N/A   Scattered Clouds
4:55 PM 77.0 °F 50.0 °F 39% 30.07 in 10.0 mi North 5.8 mph - N/A   Clear
5:15 PM 77.0 °F 50.0 °F 39% 30.07 in 10.0 mi North 6.9 mph - N/A   Clear
5:35 PM 77.0 °F 50.0 °F 39% 30.08 in 10.0 mi North 6.9 mph - N/A   Clear
5:55 PM 77.0 °F 50.0 °F 39% 30.09 in 10.0 mi North 5.8 mph - N/A   Clear
6:15 PM 77.0 °F 50.0 °F 39% 30.09 in 10.0 mi North 5.8 mph - N/A   Clear
6:35 PM 73.4 °F 50.0 °F 44% 30.10 in 10.0 mi North 5.8 mph - N/A   Clear
6:55 PM 73.4 °F 53.6 °F 50% 30.10 in 10.0 mi Calm Calm - N/A   Clear
7:15 PM 66.2 °F 57.2 °F 73% 30.10 in 10.0 mi Calm Calm - N/A   Clear
7:35 PM 64.4 °F 59.0 °F 83% 30.10 in 10.0 mi Calm Calm - N/A   Clear
7:55 PM 62.6 °F 59.0 °F 88% 30.10 in 10.0 mi Calm Calm - N/A   Clear
8:15 PM 60.8 °F 59.0 °F 94% 30.11 in 10.0 mi Calm Calm - N/A   Clear
8:35 PM 60.8 °F 59.0 °F 94% 30.12 in 10.0 mi Calm Calm - N/A   Clear
8:55 PM 59.0 °F 59.0 °F 100% 30.13 in 10.0 mi Calm Calm - N/A   Clear
9:15 PM 59.0 °F 59.0 °F 100% 30.14 in 10.0 mi Calm Calm - N/A   Clear
9:35 PM 59.0 °F 57.2 °F 94% 30.14 in 10.0 mi Calm Calm - N/A   Clear
9:55 PM 59.0 °F 59.0 °F 100% 30.15 in 10.0 mi Calm Calm - N/A   Clear
10:15 PM 57.2 °F 57.2 °F 100% 30.15 in 10.0 mi Calm Calm - N/A   Clear
10:35 PM 55.4 °F 55.4 °F 100% 30.16 in 10.0 mi Calm Calm - N/A   Clear
10:55 PM 55.4 °F 55.4 °F 100% 30.16 in 10.0 mi Calm Calm - N/A   Clear
11:15 PM 55.4 °F 55.4 °F 100% 30.16 in 10.0 mi Calm Calm - N/A   Clear
11:35 PM 55.4 °F 55.4 °F 100% 30.17 in 10.0 mi Calm Calm - N/A   Clear
11:55 PM 55.4 °F 55.4 °F 100% 30.17 in 10.0 mi Calm Calm - N/A   Clear